Location: *
(50.9167°S, 179.4000°W)
Time: 20:08:41
(UTC+00:00)

Lacrosse 4 Rocket - Pass Details

Date: 03 March 2024
Orbit: 532 x 593 km, 68.0° (Epoch: 16 April)

Event Time Altitude Azimuth Distance (km) Brightness Sun altitude
Exits shadow 12:47:29 18° 212° (SSW) 1,460 3.9 -32.0°
Maximum altitude 12:47:30 18° 212° (SSW) 1,460 3.9 -32.0°
Drops below altitude 10° 12:50:32 10° 168° (SSE) 1,935 5.0 -31.9°
Sets 12:53:25 0° 148° (SSE) 2,853 6.0 -31.8°
